Погода в Бозое

Россия / Иркутская область     52°55′20″N   104°51′06″E
темп.,
°C
ветер,
м/с
пор.,
м/с
влажн.,
%
обл.,
%
осадки,
мм/ч
давл.,
гПа
погр.,
м
5 марта, пт
пт523:00−25св22900 0.0 104020
02:00−26св23890 0.0 103922
05:00−25св238339 0.0 103821
08:00−25всв238341 0.0 103726
11:00−18в35810 0.0 1034206
14:00−12в47865 0.0 1030377
17:00−10юв488449 0.0 1027413
20:00−16вюв369068 0.0 1027105
6 марта, сб
сб623:00−19всв339133 0.0 102753
02:00−18всв229067 0.0 102740
05:00−16юв2392100 0.0 1027144
08:00−17ююв1193100 0.0 103020
11:00−12ю118975 0.0 1029184
14:00−8ю229171 0.0 1026241
17:00−7в129071 0.0 1023102
20:00−11св228636 0.0 102421
7 марта, вс
вс723:00−11всв118975 0.0 102321
02:00−12всв128945 0.0 102221
05:00−11всв128867 0.0 102121
08:00−13всв118653 0.0 102121
11:00−6юв128095 0.0 1019139
14:00−3юв237994 0.0 1017257
17:00−2юв13890 0.0 1015169
20:00−7юз119134 0.0 101821
8 марта, пн
пн823:00−7зюз118699 0.0 101921
02:00−6с1286100 0.0 102021
05:00−10сз119096 0.0 102121
08:00−6ссз289596 0.3 1025300
11:00−7сз4983100 0.1 1027874
14:00−6зсз487398 0.1 1028816
17:00−6з237821 0.0 1026336
20:00−13вюв018416 0.0 102821
9 марта, вт
вт923:00−13всв228686 0.0 102621
02:00−13всв338259 0.0 102338
05:00−13в338138 0.0 102042
08:00−13всв228531 0.0 102025
11:00−6вюв128399 0.0 1020192
14:00−3ю118499 0.0 1021353
17:00−3ю2393100 0.0 1021203
20:00−5юз2497100 0.3 102487